When you browse on this site, cookies collect data to enhance your experience and personalize the content and advertising you see.
Visit our Privacy Policy to learn more. By continuing to use the site, you agree to this use of cookies and data.
  • în România
  • Lista ţărilor
  • Pe 7 zile
  • Temperatura apei
  • Meteo pe hartă
  • Widget-uri
  • user-avatar
    Intrare

    Meteo pe oră la Batina

    Astăzi, 15 Decembrie, Duminică

    Timp Temperatura Precipitaţii Vânt Presiune Umiditate
    00:00 +9°C° 0 mm 3 m/s 671 mmHg 67%
    01:00 +9°C° 0 mm 3 m/s 671 mmHg 67%
    02:00 +8°C° 0 mm 3 m/s 671 mmHg 67%
    03:00 +8°C° 0 mm 2 m/s 670 mmHg 67%
    04:00 +8°C° 0 mm 3 m/s 670 mmHg 65%
    05:00 +8°C° 0 mm 3 m/s 670 mmHg 63%
    06:00 +8°C° 0 mm 3 m/s 671 mmHg 61%
    07:00 +10°C° 0 mm 3 m/s 671 mmHg 57%
    08:00 +11°C° 0 mm 3 m/s 672 mmHg 53%
    09:00 +13°C° 0 mm 3 m/s 673 mmHg 50%
    10:00 +14°C° 0 mm 3 m/s 673 mmHg 46%
    11:00 +15°C° 0 mm 4 m/s 673 mmHg 42%
    12:00 +17°C° 0 mm 4 m/s 673 mmHg 39%
    13:00 +17°C° 0 mm 4 m/s 673 mmHg 41%
    14:00 +15°C° 0 mm 4 m/s 672 mmHg 43%
    15:00 +15°C° 0 mm 4 m/s 672 mmHg 45%
    16:00 +13°C° 0 mm 3 m/s 672 mmHg 50%
    17:00 +12°C° 0 mm 3 m/s 671 mmHg 55%
    18:00 +10°C° 0 mm 3 m/s 671 mmHg 60%
    19:00 +10°C° 0 mm 3 m/s 671 mmHg 60%
    20:00 +10°C° 0 mm 3 m/s 671 mmHg 61%
    21:00 +9°C° 0 mm 3 m/s 671 mmHg 62%
    22:00 +9°C° 0 mm 3 m/s 671 mmHg 62%
    23:00 +9°C° 0 mm 3 m/s 671 mmHg 63%

    Mâine, 16 Decembrie, Luni

    Timp Temperatura Precipitaţii Vânt Presiune Umiditate
    00:00 +9°C° 0 mm 3 m/s 671 mmHg 64%
    01:00 +8°C° 0 mm 3 m/s 670 mmHg 66%
    02:00 +8°C° 0 mm 3 m/s 670 mmHg 69%
    03:00 +8°C° 0 mm 3 m/s 670 mmHg 71%
    04:00 +7°C° 0 mm 3 m/s 670 mmHg 72%
    05:00 +7°C° 0 mm 3 m/s 669 mmHg 73%
    06:00 +7°C° 0 mm 2 m/s 669 mmHg 74%
    07:00 +9°C° 0 mm 3 m/s 670 mmHg 69%
    08:00 +10°C° 0 mm 3 m/s 670 mmHg 64%
    09:00 +11°C° 0 mm 3 m/s 671 mmHg 60%
    10:00 +13°C° 0 mm 4 m/s 671 mmHg 55%
    11:00 +14°C° 0 mm 4 m/s 670 mmHg 49%
    12:00 +15°C° 0 mm 5 m/s 670 mmHg 44%
    13:00 +14°C° 0 mm 5 m/s 670 mmHg 46%
    14:00 +14°C° 0 mm 4 m/s 669 mmHg 47%
    15:00 +13°C° 0 mm 4 m/s 668 mmHg 48%
    16:00 +12°C° 0 mm 4 m/s 668 mmHg 54%
    17:00 +11°C° 0 mm 4 m/s 667 mmHg 60%
    18:00 +10°C° 0 mm 3 m/s 667 mmHg 66%
    19:00 +9°C° 0 mm 3 m/s 667 mmHg 66%
    20:00 +8°C° 0 mm 4 m/s 667 mmHg 66%
    21:00 +8°C° 0 mm 4 m/s 666 mmHg 67%
    22:00 +8°C° 0 mm 4 m/s 666 mmHg 67%
    23:00 +8°C° 0 mm 4 m/s 666 mmHg 68%

    Poimâine, 17 Decembrie, Marţi

    Timp Temperatura Precipitaţii Vânt Presiune Umiditate
    00:00 +8°C° 0 mm 4 m/s 665 mmHg 69%
    01:00 +8°C° 0 mm 3 m/s 665 mmHg 68%
    02:00 +8°C° 0 mm 3 m/s 665 mmHg 68%
    03:00 +8°C° 0 mm 3 m/s 664 mmHg 67%
    04:00 +8°C° 0 mm 3 m/s 664 mmHg 67%
    05:00 +8°C° 0 mm 3 m/s 664 mmHg 67%
    06:00 +8°C° 0 mm 3 m/s 663 mmHg 66%
    07:00 +8°C° 0 mm 4 m/s 664 mmHg 60%
    08:00 +10°C° 0 mm 5 m/s 664 mmHg 54%
    09:00 +12°C° 0 mm 5 m/s 664 mmHg 48%
    10:00 +12°C° 0 mm 8 m/s 664 mmHg 42%
    11:00 +13°C° 0 mm 11 m/s 663 mmHg 36%
    12:00 +14°C° 0 mm 14 m/s 663 mmHg 30%
    13:00 +13°C° 0 mm 13 m/s 662 mmHg 33%
    14:00 +12°C° 0 mm 12 m/s 661 mmHg 35%
    15:00 +11°C° 0 mm 11 m/s 660 mmHg 38%
    16:00 +10°C° 0 mm 9 m/s 661 mmHg 46%
    17:00 +9°C° 0 mm 6 m/s 661 mmHg 53%
    18:00 +8°C° 0 mm 4 m/s 661 mmHg 60%
    19:00 +7°C° 0.3 mm 4 m/s 661 mmHg 66%
    20:00 +6°C° 0.3 mm 4 m/s 661 mmHg 72%
    21:00 +6°C° 0.3 mm 4 m/s 661 mmHg 78%
    22:00 +5°C° 0 mm 4 m/s 661 mmHg 80%
    23:00 +4°C° 0 mm 4 m/s 661 mmHg 81%

    18 Decembrie, Miercuri

    Timp Temperatura Precipitaţii Vânt Presiune Umiditate
    00:00 +3°C° 0 mm 4 m/s 662 mmHg 83%
    01:00 +3°C° 0 mm 4 m/s 662 mmHg 83%
    02:00 +3°C° 0 mm 3 m/s 662 mmHg 83%
    03:00 +3°C° 0 mm 3 m/s 663 mmHg 83%
    04:00 +2°C° 0 mm 3 m/s 663 mmHg 84%
    05:00 +2°C° 0 mm 3 m/s 663 mmHg 85%
    06:00 +2°C° 0 mm 3 m/s 664 mmHg 86%
    07:00 +1°C° 0 mm 4 m/s 664 mmHg 81%
    08:00 +3°C° 0 mm 4 m/s 665 mmHg 77%
    09:00 +2°C° 0 mm 5 m/s 665 mmHg 73%
    10:00 +3°C° 0 mm 5 m/s 666 mmHg 71%
    11:00 +5°C° 0 mm 5 m/s 666 mmHg 69%
    12:00 +4°C° 0 mm 6 m/s 666 mmHg 67%
    13:00 +4°C° 0 mm 6 m/s 666 mmHg 67%
    14:00 +4°C° 0 mm 6 m/s 667 mmHg 67%
    15:00 +5°C° 0 mm 6 m/s 667 mmHg 67%
    16:00 +5°C° 0 mm 5 m/s 667 mmHg 68%
    17:00 +3°C° 0 mm 5 m/s 668 mmHg 69%
    18:00 +4°C° 0 mm 4 m/s 668 mmHg 69%
    19:00 +3°C° 0 mm 4 m/s 668 mmHg 67%
    20:00 +3°C° 0 mm 3 m/s 669 mmHg 65%
    21:00 +2°C° 0 mm 3 m/s 669 mmHg 63%
    22:00 +2°C° 0 mm 3 m/s 669 mmHg 63%
    23:00 +2°C° 0 mm 3 m/s 669 mmHg 63%

    19 Decembrie, Joi

    Timp Temperatura Precipitaţii Vânt Presiune Umiditate
    00:00 +3°C° 0 mm 2 m/s 669 mmHg 64%
    01:00 +3°C° 0 mm 2 m/s 669 mmHg 64%
    02:00 +3°C° 0 mm 2 m/s 669 mmHg 64%
    03:00 +3°C° 0 mm 2 m/s 670 mmHg 65%
    04:00 +4°C° 0 mm 1 m/s 670 mmHg 64%
    05:00 +5°C° 0 mm 1 m/s 670 mmHg 63%
    06:00 +5°C° 0 mm 1 m/s 670 mmHg 62%
    07:00 +7°C° 0 mm 1 m/s 671 mmHg 58%
    08:00 +8°C° 0 mm 2 m/s 672 mmHg 55%
    09:00 +10°C° 0 mm 2 m/s 673 mmHg 52%
    10:00 +11°C° 0 mm 3 m/s 673 mmHg 53%
    11:00 +12°C° 0 mm 3 m/s 673 mmHg 54%
    12:00 +13°C° 0 mm 4 m/s 673 mmHg 55%
    13:00 +13°C° 0 mm 4 m/s 673 mmHg 56%
    14:00 +12°C° 0 mm 4 m/s 672 mmHg 57%
    15:00 +12°C° 0 mm 3 m/s 672 mmHg 58%
    16:00 +11°C° 0 mm 3 m/s 672 mmHg 62%
    17:00 +10°C° 0 mm 3 m/s 671 mmHg 66%
    18:00 +9°C° 0 mm 2 m/s 671 mmHg 70%
    19:00 +8°C° 0 mm 3 m/s 671 mmHg 71%
    20:00 +8°C° 0 mm 3 m/s 672 mmHg 71%
    21:00 +8°C° 0 mm 3 m/s 672 mmHg 72%
    22:00 +8°C° 0 mm 3 m/s 671 mmHg 71%
    23:00 +7°C° 0 mm 3 m/s 671 mmHg 71%

    20 Decembrie, Vineri

    Timp Temperatura Precipitaţii Vânt Presiune Umiditate
    00:00 +7°C° 0 mm 3 m/s 671 mmHg 71%
    01:00 +7°C° 0 mm 3 m/s 671 mmHg 71%
    02:00 +7°C° 0 mm 3 m/s 670 mmHg 71%
    03:00 +7°C° 0 mm 3 m/s 670 mmHg 71%
    04:00 +7°C° 0 mm 3 m/s 670 mmHg 70%
    05:00 +7°C° 0 mm 3 m/s 669 mmHg 68%
    06:00 +7°C° 0 mm 3 m/s 669 mmHg 66%
    07:00 +8°C° 0 mm 3 m/s 669 mmHg 60%
    08:00 +10°C° 0 mm 4 m/s 670 mmHg 55%
    09:00 +11°C° 0 mm 4 m/s 670 mmHg 49%
    10:00 +12°C° 0 mm 5 m/s 670 mmHg 45%
    11:00 +13°C° 0 mm 5 m/s 670 mmHg 42%
    12:00 +13°C° 0 mm 6 m/s 669 mmHg 39%
    13:00 +13°C° 0 mm 6 m/s 669 mmHg 40%
    14:00 +11°C° 0 mm 6 m/s 668 mmHg 41%
    15:00 +11°C° 0 mm 6 m/s 667 mmHg 43%
    16:00 +10°C° 0 mm 6 m/s 667 mmHg 44%
    17:00 +9°C° 0 mm 5 m/s 667 mmHg 45%
    18:00 +8°C° 0 mm 5 m/s 667 mmHg 47%
    19:00 +8°C° 0 mm 5 m/s 667 mmHg 47%
    20:00 +8°C° 0 mm 5 m/s 667 mmHg 47%
    21:00 +8°C° 0 mm 5 m/s 667 mmHg 48%
    22:00 +8°C° 0 mm 5 m/s 667 mmHg 51%
    23:00 +8°C° 0 mm 4 m/s 667 mmHg 54%
    Arată mai mult